�N����,����,�~����,�C��,���x,�C��,����,���ϕ���,�ő�u�ԕ���,�ő厞����,���˗�,�I�_���x,�n�����x,�ő啗���N��,DTYPE
"22/02/08","00:10",0.0,2.1,86.1,1018.5,316.5,2.0,2.6,330.8,0.00,0.1,5.6,"00:00:32",1
"22/02/08","00:20",0.0,2.0,86.3,1018.5,297.7,1.5,1.8,310.7,0.00,0.0,5.6,"00:14:48",1
"22/02/08","00:30",0.0,2.1,86.5,1018.2,294.3,1.5,1.9,313.6,0.00,0.1,5.6,"00:26:24",1
"22/02/08","00:40",0.0,2.3,86.6,1018.5,301.4,2.0,2.8,323.8,0.00,0.3,5.6,"00:38:48",1
"22/02/08","00:50",0.0,2.2,86.7,1018.2,330.0,1.8,2.8,326.8,0.00,0.3,5.7,"00:43:20",1
"22/02/08","01:00",0.0,2.1,86.9,1018.5,313.7,2.1,2.8,331.1,0.00,0.2,5.5,"00:52:24",1
"22/02/08","01:10",0.0,2.2,87.1,1018.0,294.4,1.6,2.2,312.8,0.00,0.3,5.5,"01:06:24",1
"22/02/08","01:20",0.0,2.3,87.3,1018.5,291.6,2.1,2.8,303.0,0.00,0.4,5.6,"01:15:04",1
"22/02/08","01:30",0.0,2.3,87.3,1018.0,302.6,2.5,3.3,314.8,0.00,0.4,5.4,"01:24:24",1
"22/02/08","01:40",0.0,2.3,87.3,1017.8,297.0,2.2,2.8,303.4,0.00,0.4,5.5,"01:33:20",1
"22/02/08","01:50",0.0,2.4,87.2,1017.8,282.9,2.1,2.5,291.8,0.00,0.5,5.3,"01:46:40",1
"22/02/08","02:00",0.0,2.4,87.1,1018.0,307.5,2.7,4.0,321.8,0.00,0.5,5.4,"01:55:28",1
"22/02/08","02:10",0.0,2.5,86.8,1017.8,293.7,1.8,2.6,305.9,0.00,0.6,5.5,"02:00:08",1
"22/02/08","02:20",0.0,2.4,86.6,1017.5,321.4,1.2,2.6,325.7,0.00,0.4,5.6,"02:10:08",1
"22/02/08","02:30",0.0,2.1,86.6,1017.5,308.0,1.7,2.2,311.2,0.00,0.1,5.5,"02:24:56",1
"22/02/08","02:40",0.0,2.1,86.9,1017.1,306.7,2.0,2.6,310.1,0.00,0.2,5.4,"02:35:36",1
"22/02/08","02:50",0.0,2.1,87.1,1017.5,306.7,1.7,2.9,316.3,0.00,0.2,5.3,"02:48:40",1
"22/02/08","03:00",0.0,2.3,87.3,1018.0,290.3,2.0,2.9,312.5,0.00,0.4,5.4,"02:53:28",1
"22/02/08","03:10",0.0,2.3,87.4,1018.0,289.0,1.8,2.5,314.0,0.00,0.5,5.5,"03:05:28",1
"22/02/08","03:20",0.0,2.4,87.5,1017.8,305.0,2.1,3.4,323.9,0.00,0.6,5.4,"03:18:16",1
"22/02/08","03:30",0.0,2.4,87.6,1017.5,314.6,2.6,3.3,321.7,0.00,0.6,5.5,"03:25:36",1
"22/02/08","03:40",0.0,2.3,87.6,1017.5,313.6,1.8,2.2,325.3,0.00,0.5,5.5,"03:30:24",1
"22/02/08","03:50",0.0,2.2,87.7,1017.3,290.8,1.5,2.2,269.2,0.00,0.4,5.6,"03:48:48",1
"22/02/08","04:00",0.0,2.3,87.8,1017.1,312.8,2.3,3.2,330.3,0.00,0.5,5.5,"03:56:48",1
"22/02/08","04:10",0.0,2.3,87.8,1016.8,322.0,1.6,2.2,318.2,0.00,0.5,5.2,"04:02:48",1
"22/02/08","04:20",0.0,2.2,87.9,1017.1,319.6,1.5,2.0,318.7,0.00,0.4,5.4,"04:15:28",1
"22/02/08","04:30",0.0,2.0,88.0,1016.6,281.5,1.3,1.7,310.2,0.00,0.3,5.4,"04:20:08",1
"22/02/08","04:40",0.0,2.0,88.2,1016.6,291.4,1.7,2.1,298.5,0.00,0.3,5.6,"04:35:44",1
"22/02/08","04:50",0.0,2.1,88.4,1016.8,311.6,2.5,3.4,314.2,0.00,0.4,5.3,"04:42:48",1
"22/02/08","05:00",0.0,2.1,88.4,1016.6,320.5,2.1,2.8,317.6,0.00,0.4,5.3,"04:58:00",1
"22/02/08","05:10",0.0,1.9,88.7,1017.1,318.5,1.7,2.7,310.9,0.00,0.3,5.5,"05:09:12",1
"22/02/08","05:20",0.0,1.9,88.8,1016.8,311.8,1.8,2.8,317.6,0.00,0.3,5.4,"05:12:32",1
"22/02/08","05:30",0.0,1.9,89.0,1016.8,293.7,2.1,2.9,320.4,0.00,0.3,5.5,"05:21:04",1
"22/02/08","05:40",0.0,1.9,89.1,1016.8,303.5,2.6,3.2,311.2,0.00,0.3,5.1,"05:38:24",1
"22/02/08","05:50",0.0,1.9,89.1,1017.1,308.1,2.2,2.7,323.6,0.00,0.3,5.4,"05:47:28",1
"22/02/08","06:00",0.0,1.9,89.2,1017.1,313.7,2.2,2.8,306.6,0.00,0.4,5.3,"05:51:44",1
"22/02/08","06:10",0.0,1.8,89.4,1017.5,306.5,2.0,2.7,305.9,0.00,0.3,5.4,"06:09:44",1
"22/02/08","06:20",0.0,1.9,89.5,1017.5,304.1,3.0,4.5,321.8,0.00,0.4,5.2,"06:15:36",1
"22/02/08","06:30",0.0,2.1,89.5,1017.5,318.0,3.1,4.2,325.6,0.00,0.6,5.2,"06:27:04",1
"22/02/08","06:40",0.0,2.1,89.5,1017.5,325.8,2.0,3.5,339.9,0.00,0.6,5.4,"06:35:28",1
"22/02/08","06:50",0.0,2.0,89.4,1017.8,324.1,1.1,2.5,319.2,0.00,0.5,5.1,"06:46:32",1
"22/02/08","07:00",0.0,1.9,89.5,1018.0,282.5,1.0,1.3,263.2,0.00,0.4,5.1,"06:53:04",1
"22/02/08","07:10",0.0,1.9,89.5,1017.5,318.7,1.2,2.2,330.5,0.00,0.4,5.3,"07:09:04",1
"22/02/08","07:20",0.0,1.9,89.6,1017.8,327.1,1.7,2.5,331.4,0.00,0.4,5.1,"07:14:16",1
"22/02/08","07:30",0.0,2.0,89.7,1018.0,318.0,2.3,3.6,324.2,0.00,0.5,5.1,"07:29:36",1
"22/02/08","07:40",0.0,2.1,89.7,1018.0,318.0,2.1,2.9,326.7,0.00,0.6,5.0,"07:33:04",1
"22/02/08","07:50",0.0,2.1,89.8,1018.2,292.2,2.2,3.4,321.1,0.00,0.6,5.3,"07:48:24",1
"22/02/08","08:00",0.0,2.4,89.8,1018.0,304.6,2.7,4.4,321.7,0.00,0.9,5.3,"07:53:44",1
"22/02/08","08:10",0.0,2.6,89.7,1018.2,290.0,1.8,2.5,302.4,0.02,1.1,5.2,"08:05:28",1
"22/02/08","08:20",0.0,2.8,89.4,1018.5,298.8,2.2,3.6,321.8,0.02,1.3,5.2,"08:13:28",1
"22/02/08","08:30",0.0,2.9,89.2,1018.7,310.7,1.8,2.6,330.0,0.02,1.3,5.2,"08:21:04",1
"22/02/08","08:40",0.0,3.2,89.1,1018.7,301.0,1.5,2.2,314.4,0.04,1.6,5.1,"08:38:24",1
"22/02/08","08:50",0.0,3.6,88.8,1018.2,307.4,0.7,1.9,306.8,0.09,2.0,5.2,"08:40:32",1
"22/02/08","09:00",0.0,4.3,88.4,1018.7,288.5,1.1,2.2,314.5,0.13,2.6,5.3,"08:57:48",1
"22/02/08","09:10",0.0,4.7,87.1,1019.2,287.8,1.3,2.6,320.7,0.15,2.8,5.3,"09:09:50",1
"22/02/08","09:20",0.0,4.7,85.9,1019.7,311.1,1.5,2.8,337.9,0.10,2.6,5.2,"09:12:00",1
"22/02/08","09:30",0.0,5.0,84.6,1019.2,303.3,1.2,2.4,311.9,0.10,2.7,5.2,"09:25:58",1
"22/02/08","09:40",0.0,5.1,82.8,1020.1,297.8,1.8,3.3,324.0,0.16,2.5,5.3,"09:37:06",1
"22/02/08","09:50",0.0,5.6,80.9,1019.7,324.6,1.1,2.1,301.8,0.16,2.6,5.4,"09:40:10",1
"22/02/08","10:00",0.0,5.8,78.6,1019.9,124.4,0.6,1.3,112.4,0.18,2.4,5.1,"09:56:40",1
"22/02/08","10:10",0.0,5.8,77.1,1019.4,136.8,0.5,1.3,81.5,0.16,2.1,5.3,"10:08:32",1
"22/02/08","10:20",0.0,6.3,74.9,1019.9,222.6,0.6,1.6,201.0,0.24,2.2,5.5,"10:18:10",1
"22/02/08","10:30",0.0,6.6,72.6,1019.9,182.2,1.3,2.7,202.7,0.27,2.1,5.3,"10:22:34",1
"22/02/08","10:40",0.0,6.4,71.9,1019.4,255.8,0.7,2.2,206.9,0.14,1.7,5.6,"10:30:10",1
"22/02/08","10:50",0.0,7.4,71.8,1019.4,272.9,1.0,2.2,254.4,0.39,2.7,5.5,"10:46:52",1
"22/02/08","11:00",0.0,7.0,69.8,1019.7,128.5,1.1,2.6,120.1,0.35,1.9,5.6,"10:54:08",1
"22/02/08","11:10",0.0,7.9,68.2,1019.7,171.1,1.1,3.3,130.4,0.43,2.4,5.7,"11:09:04",1
"22/02/08","11:20",0.0,8.3,66.3,1019.2,185.3,1.3,2.9,224.0,0.44,2.4,5.7,"11:17:12",1
"22/02/08","11:30",0.0,8.4,63.8,1019.0,189.0,2.0,3.4,184.9,0.45,2.0,6.0,"11:21:46",1
"22/02/08","11:40",0.0,8.7,63.5,1019.0,169.1,1.7,4.8,136.8,0.43,2.2,5.7,"11:34:56",1
"22/02/08","11:50",0.0,8.7,63.1,1018.7,142.0,2.2,4.3,144.0,0.43,2.1,5.8,"11:49:44",1
"22/02/08","12:00",0.0,8.9,61.2,1019.0,137.7,1.8,3.9,109.2,0.47,1.9,5.7,"11:52:08",1
"22/02/08","12:10",0.0,9.3,59.5,1018.5,158.2,1.7,3.6,119.4,0.48,1.9,5.8,"12:08:16",1
"22/02/08","12:20",0.0,9.8,58.1,1018.5,199.2,1.8,4.0,224.5,0.48,2.0,6.1,"12:16:08",1
"22/02/08","12:30",0.0,10.2,56.2,1017.5,181.4,1.7,3.5,204.9,0.50,1.9,6.2,"12:25:52",1
"22/02/08","12:40",0.0,10.1,56.4,1017.8,158.7,2.3,3.7,196.1,0.50,1.9,6.2,"12:33:04",1
"22/02/08","12:50",0.0,10.6,54.5,1017.3,189.0,1.8,3.1,164.5,0.49,1.9,6.5,"12:44:48",1
"22/02/08","13:00",0.0,10.7,53.7,1017.3,204.8,1.8,3.4,167.0,0.50,1.7,6.6,"12:52:40",1
"22/02/08","13:10",0.0,11.2,53.0,1016.8,233.9,1.5,3.4,198.1,0.49,2.0,6.3,"13:02:48",1
"22/02/08","13:20",0.0,10.7,52.4,1016.8,169.4,2.2,3.7,177.3,0.42,1.4,6.7,"13:18:48",1
"22/02/08","13:30",0.0,11.0,51.4,1017.1,172.7,1.6,3.4,176.5,0.47,1.4,6.8,"13:24:56",1
"22/02/08","13:40",0.0,10.7,50.9,1016.8,296.6,1.7,3.5,139.6,0.31,1.0,6.9,"13:38:56",1
"22/02/08","13:50",0.0,10.4,51.0,1016.4,356.0,1.3,2.9,129.5,0.23,0.7,7.0,"13:41:04",1
"22/02/08","14:00",0.0,10.9,51.6,1016.4,326.5,1.8,3.3,335.2,0.31,1.4,7.1,"13:56:16",1
"22/02/08","14:10",0.0,11.3,50.0,1016.1,233.1,1.7,4.0,223.2,0.36,1.3,7.1,"14:09:42",1
"22/02/08","14:20",0.0,10.6,51.7,1015.9,211.7,2.2,4.2,195.2,0.22,1.1,7.2,"14:11:44",1
"22/02/08","14:30",0.0,10.6,51.6,1015.9,218.2,2.2,5.5,230.9,0.19,1.1,7.3,"14:20:24",1
"22/02/08","14:40",0.0,10.1,52.3,1015.6,202.6,2.5,5.8,217.0,0.12,0.8,7.2,"14:30:48",1
"22/02/08","14:50",0.0,9.8,52.7,1015.9,230.7,2.5,4.8,235.6,0.07,0.6,7.5,"14:42:00",1
"22/02/08","15:00",0.0,9.8,53.2,1015.9,266.0,1.0,2.8,196.0,0.04,0.8,7.5,"14:50:08",1
"22/02/08","15:10",0.0,9.8,52.4,1015.9,284.9,1.8,3.4,252.5,0.04,0.6,7.5,"15:02:24",1
"22/02/08","15:20",0.0,9.6,52.5,1016.4,298.4,2.1,3.2,316.6,0.03,0.4,7.5,"15:15:04",1
"22/02/08","15:30",0.0,9.6,55.0,1015.4,346.6,1.7,3.1,31.0,0.03,1.0,7.6,"15:22:08",1
"22/02/08","15:40",0.0,9.5,56.6,1015.6,3.6,1.2,2.8,330.5,0.02,1.4,7.7,"15:31:04",1
"22/02/08","15:50",0.0,9.3,58.2,1015.4,84.1,1.1,3.3,112.0,0.02,1.6,7.7,"15:48:56",1
"22/02/08","16:00",0.0,9.2,60.1,1015.4,108.4,1.3,2.6,101.9,0.01,1.9,7.9,"15:59:04",1
"22/02/08","16:10",0.0,8.9,61.5,1015.4,105.3,1.6,2.8,97.3,0.01,1.9,7.5,"16:05:20",1
"22/02/08","16:20",0.0,8.8,61.8,1015.9,104.3,1.1,2.2,122.3,0.00,1.9,7.6,"16:10:32",1
"22/02/08","16:30",0.0,8.7,62.3,1015.4,113.7,1.2,2.5,118.3,0.00,1.9,7.6,"16:27:36",1
"22/02/08","16:40",0.0,8.6,62.6,1015.9,116.9,1.0,2.1,94.8,0.00,1.9,7.7,"16:31:44",1
"22/02/08","16:50",0.0,8.6,62.7,1015.9,98.8,1.2,2.4,106.3,0.00,1.9,7.7,"16:48:56",1
"22/02/08","17:00",0.0,8.5,63.3,1015.9,92.6,1.1,2.0,112.2,0.00,2.0,7.5,"16:51:44",1
"22/02/08","17:10",0.0,8.4,63.5,1016.4,81.1,1.1,2.6,100.9,0.00,1.9,7.8,"17:02:08",1
"22/02/08","17:20",0.0,8.2,63.6,1016.6,122.6,0.8,2.0,99.1,0.00,1.8,7.7,"17:11:04",1
"22/02/08","17:30",0.0,8.1,64.3,1016.6,345.7,1.0,2.1,10.2,0.00,1.8,7.7,"17:22:40",1
"22/02/08","17:40",0.0,7.8,67.9,1017.1,332.3,1.6,2.7,312.0,0.00,2.3,7.7,"17:36:56",1
"22/02/08","17:50",0.4,7.1,71.9,1017.3,347.8,1.0,1.3,347.5,0.00,2.4,7.7,"17:44:02",1
"22/02/08","18:00",0.2,6.5,74.5,1017.1,316.7,2.1,3.4,319.3,0.00,2.3,7.5,"17:58:24",1
"22/02/08","18:10",0.0,6.4,77.0,1017.3,317.2,3.2,3.7,323.5,0.00,2.7,7.5,"18:08:22",1
"22/02/08","18:20",0.0,6.2,79.6,1017.1,304.3,2.6,3.7,316.2,0.00,3.0,7.6,"18:10:36",1
"22/02/08","18:30",0.2,6.1,82.1,1017.3,311.8,2.7,4.1,329.4,0.00,3.3,7.4,"18:22:10",1
"22/02/08","18:40",0.0,5.9,84.1,1017.3,315.0,2.2,3.5,320.2,0.00,3.5,7.3,"18:31:54",1
"22/02/08","18:50",0.0,5.9,85.6,1017.3,317.6,2.5,3.2,330.1,0.00,3.7,7.6,"18:43:30",1
"22/02/08","19:00",0.0,5.8,86.8,1017.8,319.9,2.7,3.2,319.7,0.00,3.8,7.4,"18:53:22",1
"22/02/08","19:10",0.0,5.7,87.8,1017.8,299.2,2.0,2.7,318.9,0.00,3.9,7.5,"19:04:50",1
"22/02/08","19:20",0.0,5.5,88.5,1017.8,304.9,1.6,2.2,309.7,0.00,3.8,7.3,"19:10:40",1
"22/02/08","19:30",0.0,5.5,89.3,1017.5,287.7,1.7,2.1,260.5,0.00,3.9,7.2,"19:28:24",1
"22/02/08","19:40",0.0,5.3,89.8,1017.8,304.4,1.7,2.5,312.9,0.00,3.8,7.5,"19:37:36",1
"22/02/08","19:50",0.0,5.2,90.2,1017.5,320.4,1.6,2.4,332.3,0.00,3.8,7.3,"19:44:40",1
"22/02/08","20:00",0.0,5.0,90.9,1018.2,320.8,2.5,3.4,330.8,0.00,3.7,7.4,"19:57:28",1
"22/02/08","20:10",0.0,4.9,91.3,1018.2,303.4,2.3,3.3,314.6,0.00,3.6,7.3,"20:02:00",1
"22/02/08","20:20",0.0,4.7,91.8,1018.2,309.1,2.3,3.2,323.7,0.00,3.5,7.3,"20:10:02",1
"22/02/08","20:30",0.0,4.4,92.2,1018.2,313.5,2.7,4.0,319.5,0.00,3.3,7.3,"20:23:36",1
"22/02/08","20:40",0.0,4.1,92.5,1018.5,315.2,2.6,3.2,322.3,0.00,3.0,7.1,"20:35:20",1
"22/02/08","20:50",0.0,3.9,92.9,1018.7,297.3,3.0,4.1,317.2,0.00,2.9,7.3,"20:49:04",1
"22/02/08","21:00",0.0,3.5,93.2,1018.7,322.7,2.7,3.9,313.0,0.00,2.5,7.2,"20:57:52",1
"22/02/08","21:10",0.0,3.3,93.7,1018.5,303.5,2.3,3.5,316.0,0.00,2.4,7.5,"21:00:02",1
"22/02/08","21:20",0.0,3.6,93.9,1019.0,309.5,3.7,4.7,314.1,0.00,2.8,7.2,"21:15:04",1
"22/02/08","21:30",0.0,3.6,94.0,1019.0,311.1,3.4,4.0,321.2,0.00,2.8,7.1,"21:26:48",1
"22/02/08","21:40",0.0,3.6,94.2,1018.5,301.0,3.0,4.9,310.9,0.00,2.8,7.4,"21:39:36",1
"22/02/08","21:50",0.0,3.6,94.3,1018.5,300.4,3.7,4.7,301.6,0.00,2.8,7.1,"21:40:16",1
"22/02/08","22:00",0.0,3.6,94.3,1018.5,299.7,3.7,4.7,319.8,0.00,2.8,7.2,"21:56:32",1
"22/02/08","22:10",0.0,3.4,94.5,1018.5,317.0,3.0,4.1,308.8,0.00,2.6,7.2,"22:01:36",1
"22/02/08","22:20",0.0,3.1,94.6,1018.5,303.6,2.7,3.4,321.4,0.00,2.4,7.0,"22:13:36",1
"22/02/08","22:30",0.0,2.9,94.7,1018.2,295.0,2.7,3.7,310.9,0.00,2.2,6.9,"22:24:40",1
"22/02/08","22:40",0.0,2.6,94.9,1018.5,297.3,2.3,3.4,311.7,0.00,1.9,6.9,"22:36:24",1
"22/02/08","22:50",0.0,2.4,95.0,1018.0,303.1,2.5,3.1,321.6,0.00,1.7,6.9,"22:48:08",1
"22/02/08","23:00",0.0,2.3,95.2,1018.2,303.3,2.1,2.8,316.3,0.00,1.7,6.8,"22:51:52",1
"22/02/08","23:10",0.0,2.3,95.3,1018.0,312.8,2.3,3.6,304.7,0.00,1.7,6.7,"23:09:14",1
"22/02/08","23:20",0.0,2.4,95.4,1018.2,329.3,1.7,3.5,322.3,0.00,1.8,6.8,"23:11:20",1
"22/02/08","23:30",0.0,2.2,95.4,1018.0,306.4,2.2,3.7,324.7,0.00,1.6,6.9,"23:25:12",1
"22/02/08","23:40",0.0,2.2,95.5,1018.0,310.3,2.2,3.4,315.4,0.00,1.6,6.7,"23:39:44",1
"22/02/08","23:50",0.0,1.9,95.6,1017.5,302.7,2.0,3.2,320.8,0.00,1.3,6.8,"23:40:08",1
"22/02/08","24:00",0.0,1.9,95.9,1017.5,315.7,2.8,3.7,308.2,0.00,1.4,6.7,"23:59:20",1
